THORAD AGENA D DEB, 4855

Orbit data source: Space-Track

THORAD AGENA D DEB, 4855 is space debris in SSO originally from a launch on Wed, 08 Apr 1970 UTC launched from the Air Force Western Test Range (AFWTR). Debris objects in space refer to the collection of defunct objects orbiting the Earth. Examples of debris include non-operational satellites, rocket bodies, and fragments generated from explosions, collisions, or faulty payload assembly.

Loading next visibility...
Identifier
4855, 1970-025EK
Orbit
SSO
Country
Flag of USUS
Related business
Manufacturer
Unknown
Mission
Spacecraft
Bus & Motor
Unknown
Mass
Unknown
Launch date (UTC)
1970-04-08 (56 years ago)
Launch vehicle
Unknown
Launch site
Air Force Western Test Range (AFWTR)
Object type
Payload
Rocket body
Debris
Shape & HBR
Unknown shape, 0.1 m
Radar Cross Section
Small (<0.1 m²)

Expand to show TLE details & history
Last TLE update: 1 day ago

TLE from 1 day ago
0 THORAD AGENA D DEB
1 04855U 70025EK  25351.44145902  .00000621  00000-0  70622-3 0  9990
2 04855  99.9362 292.2523 0014377 162.1578 322.3894 13.74555577772005
Epoch: 2025-12-17T10:35Z
TLE epoch observation values (Epoch: 2025-12-17T10:35:42.059Z)
Latitude
54.41922°
Longitude
-118.88576°
Altitude
983.761 km
Speed
7.369 km/s
True Right ascension
08h 25m 24s
True Declination
54° 15' 41"
Sunlit
Object was in full shadow at epoch
Visualization orbit readout
Latitude
Unknown
Longitude
Unknown
Altitude
Unknown
Speed
Unknown
Apparent Right ascension
Unknown
Apparent Declination
Unknown
Sunlit
N/A
Visualization observer readout
Local Sidereal Time
09:42:21
Azimuth
Unknown
Elevation
Unknown
Doppler factor
Unknown
Orbital elements
Apogee altitude
991.122 km
Perigee altitude
969.963 km
Semi-major axis
7,358.679 km
Eccentricity
0.00144
Inclination
99.9362°
RAAN
292.2523°
Arg. of periapsis
162.1578°
True anomaly
322.28871°
Mean anomaly
322.3894°
Eccentric anomaly
322.33907°
Mean motion
3.4383 °/min
Orbital period
104.7 mins
BSTAR
0.00070622
Loading maneuver chart data...
Computing Atmospheric mass density...

Documentation

Showing up to 5 results
|